CDT,Max TemperatureF,Mean TemperatureF,Min TemperatureF,Max Dew PointF,MeanDew PointF,Min DewpointF,Max Humidity, Mean Humidity, Min Humidity, Max Sea Level PressureIn, Mean Sea Level PressureIn, Min Sea Level PressureIn, Max VisibilityMiles, Mean VisibilityMiles, Min VisibilityMiles, Max Wind SpeedMPH, Mean Wind SpeedMPH, Max Gust SpeedMPH,PrecipitationIn, CloudCover, Events, WindDirDegrees
2012-10-1,73,68,62,72,66,60,100,91,78,29.74,29.58,29.49,10,8,1,20,7,24,0.40,7,Rain,223
2012-10-2,75,66,57,61,57,53,94,81,48,30.04,29.84,29.71,10,8,2,12,6,,0.00,6,,304
2012-10-3,80,66,53,63,57,51,97,78,47,30.19,30.12,30.03,10,9,6,6,1,,0.01,1,,135
2012-10-4,82,68,55,63,58,55,97,81,42,30.30,30.24,30.18,10,6,1,7,1,,0.00,1,,86
2012-10-5,82,68,55,65,59,54,94,75,42,30.22,30.14,30.04,10,8,3,7,1,,0.01,0,,170
2012-10-6,,,,,,,,,,,,,,,,,,,0.00,,,-1
2012-10-7,84,56,48,47,45,43,89,75,54,30.19,30.16,30.11,10,10,10,12,7,,0.00,1,,336
2012-10-8,64,55,46,49,46,44,93,75,50,30.26,30.18,30.10,10,10,10,9,4,17,0.00,4,,356
2012-10-9,71,54,39,55,47,38,96,78,46,30.21,30.14,30.08,10,10,7,5,1,,0.01,0,,262
2012-10-10,81,65,50,61,56,48,93,75,50,30.25,30.18,30.12,10,10,10,12,3,16,0.00,3,,316
2012-10-11,82,66,52,65,58,50,93,79,50,30.31,30.25,30.22,10,8,3,5,0,,0.01,1,,132
2012-10-12,84,70,55,65,60,54,97,76,46,30.32,30.26,30.22,10,7,1,7,1,,0.00,1,Fog,153
2012-10-13,84,70,57,66,61,55,100,81,53,30.30,30.22,30.12,10,7,1,10,2,17,0.00,1,,147
2012-10-14,82,72,64,69,66,64,100,81,60,30.21,30.10,29.99,10,8,2,10,4,18,0.01,4,Rain,171
2012-10-15,79,67,54,67,56,47,93,69,34,30.07,30.02,29.98,10,10,8,12,6,18,0.00,1,,335
2012-10-16,73,60,48,59,52,46,93,76,44,30.05,29.99,29.91,10,10,10,6,1,,0.00,5,,124
2012-10-17,79,63,48,63,55,47,93,71,44,29.93,29.84,29.75,10,10,9,12,4,20,0.01,1,,163
2012-10-18,77,66,50,66,55,34,100,75,22,29.94,29.81,29.66,10,9,2,23,8,29,0.23,3,Rain-Thunderstorm,286
2012-10-19,73,62,48,46,40,30,86,53,20,29.94,29.89,29.83,10,9,1,20,5,28,0.00,1,,254
2012-10-20,75,59,43,49,45,39,93,68,27,30.04,29.99,29.94,10,9,0,9,1,,0.00,0,,312
2012-10-21,81,62,44,55,49,42,93,70,34,30.17,30.12,30.03,10,10,10,7,1,,0.01,1,,137
2012-10-22,82,65,48,56,51,46,93,72,33,30.22,30.16,30.11,10,10,8,8,1,,0.00,1,,157
2012-10-23,82,83,48,62,55,46,93,77,43,30.20,30.12,30.08,10,10,2,6,1,,0.00,2,,140
2012-10-24,82,67,53,62,56,51,94,76,41,30.18,30.11,30.05,10,10,7,7,1,,0.01,1,,144
2012-10-25,81,66,51,62,56,50,100,81,44,30.09,30.03,30.00,10,7,1,9,1,,0.00,3,Fog,122
2012-10-26,82,66,50,63,55,46,96,77,44,30.09,30.02,29.96,10,9,2,15,4,23,0.01,4,Fog,333
2012-10-27,54,50,46,45,42,41,86,76,66,30.10,30.06,30.00,10,10,10,15,12,24,0.00,8,,344
2012-10-28,63,52,41,42,36,30,82,59,30,30.16,30.07,30.01,10,10,10,18,10,28,0.00,1,,331
2012-10-29,59,47,37,35,32,28,86,60,32,30.21,30.14,30.08,10,10,10,20,9,32,0.00,0,,319
2012-10-30,64,50,36,38,31,25,82,56,24,30.09,30.04,29.97,10,10,10,17,8,28,0.00,2,,292
2012-10-31,71,56,41,52,44,37,96,68,38,30.04,30.01,29.97,10,10,7,14,3,,0.00,4,,282